Home > Weather > Lanzhou > Past weeks

Flag for China Past Weather in Lanzhou, Gansu, China — Yesterday and Last 2 Weeks

Now
68 °F

Partly sunny.


Feels Like: 68 °F
Forecast: 54 / 82 °F
Wind: 1 mph from North

Location: Lanzhou / Zhongchuan

Current Time: Jun 30, 2016 at 9:54:10 AM

Latest Report: Jun 30, 2016 at 9:00 AM


Visibility: N/A

Pressure: 30.01 "Hg (25.07 "Hg at 1543m altitude)

Humidity: 49%

Dew Point: 48 °F

Location of LanzhouLocation

Past Weather in Lanzhou — Graph

°F

Lanzhou Temperature Yesterday

Maximum temperature yesterday: 84 °F (at 3:00 PM)
Minimum temperature yesterday: 54 °F (at 5:00 AM)
Average temperature yesterday: 70 °F

High & Low Weather Summary for the Past Weeks

 TemperatureHumidityPressure
High88 °F (Jun 17, 1:00 PM)100% (Jun 21, 2:00 AM)30.18 "Hg (Jun 21, 2:00 AM)
Low41 °F (Jun 16, 6:00 AM)10% (Jun 17, 3:00 PM)29.71 "Hg (Jun 16, 6:00 PM)
Average66 °F55%30.00 "Hg
* Reported Jun 15 8:00 AM — Jun 30 8:00 AM, Lanzhou, Weather by CustomWeather, © 2016

Note: Actual official high and low records may vary slightly from our data, if they occured in-between our weather recording intervals... More about our weather records

Advertising

Lanzhou Weather History for the Previous 24 Hours

Scroll right to see more
 ConditionsComfort  
Time TempWeatherWind HumidityBarometerVisibility
8:00 AM
Thu, Jun 30
63 °FScattered clouds.1 mph73%30.01 "HgN/A
7:00 AM61 °FSunny.1 mph68%29.98 "Hg10 mi
6:00 AM61 °FClear.1 mph68%29.98 "Hg10 mi
5:00 AM59 °FClear.1 mph72%29.98 "Hg10 mi
4:00 AM59 °FClear.1 mph72%29.98 "Hg10 mi
3:00 AM61 °FClear.3 mph63%29.98 "Hg10 mi
2:00 AM61 °FClear.3 mph63%29.98 "Hg10 mi
1:00 AM64 °FClear.6 mph60%30.01 "Hg10 mi
12:00 AM66 °FPassing clouds.3 mph56%30.01 "HgN/A
11:00 PM
Wed, Jun 29
68 °FClear.1 mph49%30.01 "Hg10 mi
10:00 PM68 °FClear.1 mph49%30.01 "Hg10 mi
9:00 PM73 °FPartly sunny.8 mph36%29.98 "HgN/A
8:00 PM73 °FPartly sunny.8 mph38%29.98 "HgN/A
7:00 PM77 °FPartly sunny.10 mph30%29.95 "HgN/A
6:00 PM79 °FPassing clouds.15 mph30%29.95 "HgN/A
5:00 PM82 °FPassing clouds.13 mph25%29.92 "HgN/A
4:00 PM84 °FSunny.1 mph22%29.92 "Hg10 mi
3:00 PM84 °FSunny.1 mph22%29.92 "Hg10 mi
2:00 PM82 °FPassing clouds.6 mph23%29.95 "HgN/A
1:00 PM82 °FSunny.3 mph25%29.95 "Hg10 mi
12:00 PM79 °FPassing clouds.3 mph30%29.98 "HgN/A
11:00 AM79 °FSunny.1 mph30%29.98 "Hg10 mi
10:00 AM75 °FSunny.1 mph36%29.98 "Hg10 mi
9:00 AM70 °FPassing clouds.3 mph46%30.01 "HgN/A
Weather by CustomWeather, © 2016

See weather overviewHow to use our weather pages